Year,Month,Day,Hour,Minute,Value (Times are PST for temperature in C)
2018,09,19,00,00,7.60
2018,09,19,00,01,7.60
2018,09,19,00,02,7.60
2018,09,19,00,03,7.50
2018,09,19,00,04,7.50
2018,09,19,00,05,7.50
2018,09,19,00,06,7.50
2018,09,19,00,07,7.50
2018,09,19,00,08,7.50
2018,09,19,00,09,7.50
2018,09,19,00,10,7.50
2018,09,19,00,11,7.40
2018,09,19,00,12,7.40
2018,09,19,00,13,7.40
2018,09,19,00,14,7.40
2018,09,19,00,15,7.40
2018,09,19,00,16,7.40
2018,09,19,00,17,7.40
2018,09,19,00,18,7.40
2018,09,19,00,19,7.40
2018,09,19,00,20,7.40
2018,09,19,00,21,7.30
2018,09,19,00,22,7.30
2018,09,19,00,23,7.30
2018,09,19,00,24,7.30
2018,09,19,00,25,7.30
2018,09,19,00,26,7.30
2018,09,19,00,27,7.30
2018,09,19,00,28,7.30
2018,09,19,00,29,7.30
2018,09,19,00,30,7.30
2018,09,19,00,31,7.30
2018,09,19,00,32,7.30
2018,09,19,00,33,7.20
2018,09,19,00,34,7.20
2018,09,19,00,35,7.20
2018,09,19,00,36,7.20
2018,09,19,00,37,7.20
2018,09,19,00,38,7.20
2018,09,19,00,39,7.20
2018,09,19,00,40,7.20
2018,09,19,00,41,7.20
2018,09,19,00,42,7.20
2018,09,19,00,43,7.20
2018,09,19,00,44,7.20
2018,09,19,00,45,7.20
2018,09,19,00,46,7.20
2018,09,19,00,47,7.20
2018,09,19,00,48,7.20
2018,09,19,00,49,7.20
2018,09,19,00,50,7.20
2018,09,19,00,51,7.20
2018,09,19,00,52,7.20
2018,09,19,00,53,7.20
2018,09,19,00,54,7.10
2018,09,19,00,55,7.10
2018,09,19,00,56,7.10
2018,09,19,00,57,7.10
2018,09,19,00,58,7.10
2018,09,19,00,59,7.10
2018,09,19,01,00,7.10
2018,09,19,01,01,7.10
2018,09,19,01,02,7.00
2018,09,19,01,03,7.00
2018,09,19,01,04,7.00
2018,09,19,01,05,7.00
2018,09,19,01,06,7.00
2018,09,19,01,07,7.00
2018,09,19,01,08,6.90
2018,09,19,01,09,6.90
2018,09,19,01,10,6.90
2018,09,19,01,11,6.90
2018,09,19,01,12,6.90
2018,09,19,01,13,6.90
2018,09,19,01,14,6.90
2018,09,19,01,15,6.90
2018,09,19,01,16,6.90
2018,09,19,01,17,6.90
2018,09,19,01,18,6.90
2018,09,19,01,19,6.90
2018,09,19,01,20,6.90
2018,09,19,01,21,6.90
2018,09,19,01,22,6.90
2018,09,19,01,23,6.90
2018,09,19,01,24,6.90
2018,09,19,01,25,6.90
2018,09,19,01,26,6.90
2018,09,19,01,27,6.90
2018,09,19,01,28,7.00
2018,09,19,01,29,7.00
2018,09,19,01,30,7.00
2018,09,19,01,31,7.00
2018,09,19,01,32,7.00
2018,09,19,01,33,7.00
2018,09,19,01,34,7.00
2018,09,19,01,35,7.00
2018,09,19,01,36,7.00
2018,09,19,01,37,6.90
2018,09,19,01,38,6.90
2018,09,19,01,39,6.90
2018,09,19,01,40,6.90
2018,09,19,01,41,6.90
2018,09,19,01,42,6.90
2018,09,19,01,43,6.90
2018,09,19,01,44,6.90
2018,09,19,01,45,6.90
2018,09,19,01,46,6.90
2018,09,19,01,47,6.90
2018,09,19,01,48,6.90
2018,09,19,01,49,6.90
2018,09,19,01,50,6.90
2018,09,19,01,51,6.90
2018,09,19,01,52,6.90
2018,09,19,01,53,6.90
2018,09,19,01,54,6.90
2018,09,19,01,55,6.90
2018,09,19,01,56,6.90
2018,09,19,01,57,6.90
2018,09,19,01,58,6.90
2018,09,19,01,59,6.90
2018,09,19,02,00,6.90
2018,09,19,02,01,6.90
2018,09,19,02,02,6.90
2018,09,19,02,03,6.90
2018,09,19,02,04,6.80
2018,09,19,02,05,6.80
2018,09,19,02,06,6.80
2018,09,19,02,07,6.80
2018,09,19,02,08,6.80
2018,09,19,02,09,6.80
2018,09,19,02,10,6.80
2018,09,19,02,11,6.80
2018,09,19,02,12,6.80
2018,09,19,02,13,6.80
2018,09,19,02,14,6.80
2018,09,19,02,15,6.80
2018,09,19,02,16,6.80
2018,09,19,02,17,6.80
2018,09,19,02,18,6.80
2018,09,19,02,19,6.80
2018,09,19,02,20,6.80
2018,09,19,02,21,6.80
2018,09,19,02,22,6.80
2018,09,19,02,23,6.80
2018,09,19,02,24,6.80
2018,09,19,02,25,6.80
2018,09,19,02,26,6.80
2018,09,19,02,27,6.80
2018,09,19,02,28,6.80
2018,09,19,02,29,6.80
2018,09,19,02,30,6.80
2018,09,19,02,31,6.80
2018,09,19,02,32,6.70
2018,09,19,02,33,6.70
2018,09,19,02,34,6.70
2018,09,19,02,35,6.70
2018,09,19,02,36,6.70
2018,09,19,02,37,6.70
2018,09,19,02,38,6.70
2018,09,19,02,39,6.70
2018,09,19,02,40,6.70
2018,09,19,02,41,6.70
2018,09,19,02,42,6.70
2018,09,19,02,43,6.70
2018,09,19,02,44,6.60
2018,09,19,02,45,6.60
2018,09,19,02,46,6.60
2018,09,19,02,47,6.60
2018,09,19,02,48,6.60
2018,09,19,02,49,6.60
2018,09,19,02,50,6.70
2018,09,19,02,51,6.70
2018,09,19,02,52,6.70
2018,09,19,02,53,6.70
2018,09,19,02,54,6.70
2018,09,19,02,55,6.70
2018,09,19,02,56,6.70
2018,09,19,02,57,6.70
2018,09,19,02,58,6.70
2018,09,19,02,59,6.70
2018,09,19,03,00,6.70
2018,09,19,03,01,6.70
2018,09,19,03,02,6.70
2018,09,19,03,03,6.70
2018,09,19,03,04,6.70
2018,09,19,03,05,6.70
2018,09,19,03,06,6.70
2018,09,19,03,07,6.70
2018,09,19,03,08,6.70
2018,09,19,03,09,6.70
2018,09,19,03,10,6.70
2018,09,19,03,11,6.70
2018,09,19,03,12,6.60
2018,09,19,03,13,6.60
2018,09,19,03,14,6.60
2018,09,19,03,15,6.60
2018,09,19,03,16,6.60
2018,09,19,03,17,6.60
2018,09,19,03,18,6.60
2018,09,19,03,19,6.60
2018,09,19,03,20,6.50
2018,09,19,03,21,6.50
2018,09,19,03,22,6.50
2018,09,19,03,23,6.50
2018,09,19,03,24,6.50
2018,09,19,03,25,6.50
2018,09,19,03,26,6.40
2018,09,19,03,27,6.40
2018,09,19,03,28,6.40
2018,09,19,03,29,6.40
2018,09,19,03,30,6.40
2018,09,19,03,31,6.40
2018,09,19,03,32,6.40
2018,09,19,03,33,6.40
2018,09,19,03,34,6.40
2018,09,19,03,35,6.30
2018,09,19,03,36,6.30
2018,09,19,03,37,6.30
2018,09,19,03,38,6.30
2018,09,19,03,39,6.30
2018,09,19,03,40,6.30
2018,09,19,03,41,6.30
2018,09,19,03,42,6.30
2018,09,19,03,43,6.30
2018,09,19,03,44,6.30
2018,09,19,03,45,6.30
2018,09,19,03,46,6.30
2018,09,19,03,47,6.30
2018,09,19,03,48,6.30
2018,09,19,03,49,6.30
2018,09,19,03,50,6.30
2018,09,19,03,51,6.30
2018,09,19,03,52,6.30
2018,09,19,03,53,6.30
2018,09,19,03,54,6.30
2018,09,19,03,55,6.30
2018,09,19,03,56,6.30
2018,09,19,03,57,6.30
2018,09,19,03,58,6.20
2018,09,19,03,59,6.20
2018,09,19,04,00,6.20
2018,09,19,04,01,6.20
2018,09,19,04,02,6.20
2018,09,19,04,03,6.20
2018,09,19,04,04,6.20
2018,09,19,04,05,6.20
2018,09,19,04,06,6.20
2018,09,19,04,07,6.20
2018,09,19,04,08,6.10
2018,09,19,04,09,6.10
2018,09,19,04,10,6.10
2018,09,19,04,11,6.10
2018,09,19,04,12,6.10
2018,09,19,04,13,6.10
2018,09,19,04,14,6.10
2018,09,19,04,15,6.10
2018,09,19,04,16,6.10
2018,09,19,04,17,6.10
2018,09,19,04,18,6.10
2018,09,19,04,19,6.20
2018,09,19,04,20,6.10
2018,09,19,04,21,6.20
2018,09,19,04,22,6.20
2018,09,19,04,23,6.10
2018,09,19,04,24,6.10
2018,09,19,04,25,6.10
2018,09,19,04,26,6.10
2018,09,19,04,27,6.10
2018,09,19,04,28,6.10
2018,09,19,04,29,6.10
2018,09,19,04,30,6.10
2018,09,19,04,31,6.10
2018,09,19,04,32,6.10
2018,09,19,04,33,6.10
2018,09,19,04,34,6.10
2018,09,19,04,35,6.10
2018,09,19,04,36,6.00
2018,09,19,04,37,6.00
2018,09,19,04,38,6.00
2018,09,19,04,39,6.00
2018,09,19,04,40,5.90
2018,09,19,04,41,5.90
2018,09,19,04,42,5.90
2018,09,19,04,43,5.90
2018,09,19,04,44,5.90
2018,09,19,04,45,5.90
2018,09,19,04,46,6.00
2018,09,19,04,47,6.00
2018,09,19,04,48,6.00
2018,09,19,04,49,6.00
2018,09,19,04,50,6.00
2018,09,19,04,51,6.00
2018,09,19,04,52,6.00
2018,09,19,04,53,6.00
2018,09,19,04,54,5.90
2018,09,19,04,55,5.90
2018,09,19,04,56,5.90
2018,09,19,04,57,5.90
2018,09,19,04,58,5.90
2018,09,19,04,59,5.80
2018,09,19,05,00,5.80
2018,09,19,05,01,5.80
2018,09,19,05,02,5.80
2018,09,19,05,03,5.80
2018,09,19,05,04,5.80
2018,09,19,05,05,5.80
2018,09,19,05,06,5.70
2018,09,19,05,07,5.70
2018,09,19,05,08,5.70
2018,09,19,05,09,5.70
2018,09,19,05,10,5.70
2018,09,19,05,11,5.70
2018,09,19,05,12,5.70
2018,09,19,05,13,5.70
2018,09,19,05,14,5.70
2018,09,19,05,15,5.70
2018,09,19,05,16,5.70
2018,09,19,05,17,5.70
2018,09,19,05,18,5.70
2018,09,19,05,19,5.70
2018,09,19,05,20,5.70
2018,09,19,05,21,5.70
2018,09,19,05,22,5.70
2018,09,19,05,23,5.70
2018,09,19,05,24,5.70
2018,09,19,05,25,5.70
2018,09,19,05,26,5.60
2018,09,19,05,27,5.60
2018,09,19,05,28,5.60
2018,09,19,05,29,5.60
2018,09,19,05,30,5.60
2018,09,19,05,31,5.60
2018,09,19,05,32,5.60
2018,09,19,05,33,5.60
2018,09,19,05,34,5.60
2018,09,19,05,35,5.60
2018,09,19,05,36,5.60
2018,09,19,05,37,5.50
2018,09,19,05,38,5.50
2018,09,19,05,39,5.50
2018,09,19,05,40,5.50
2018,09,19,05,41,5.50
2018,09,19,05,42,5.40
2018,09,19,05,43,5.40
2018,09,19,05,44,5.40
2018,09,19,05,45,5.40
2018,09,19,05,46,5.40
2018,09,19,05,47,5.40
2018,09,19,05,48,5.40
2018,09,19,05,49,5.40
2018,09,19,05,50,5.50
2018,09,19,05,51,5.50
2018,09,19,05,52,5.50
2018,09,19,05,53,5.50
2018,09,19,05,54,5.50
2018,09,19,05,55,5.50
2018,09,19,05,56,5.50
2018,09,19,05,57,5.50
2018,09,19,05,58,5.60
2018,09,19,05,59,5.60
2018,09,19,06,00,5.60
2018,09,19,06,01,5.60
2018,09,19,06,02,5.50
2018,09,19,06,03,5.50
2018,09,19,06,04,5.50
2018,09,19,06,05,5.50
2018,09,19,06,06,5.50
2018,09,19,06,07,5.50
2018,09,19,06,08,5.40
2018,09,19,06,09,5.40
2018,09,19,06,10,5.40
2018,09,19,06,11,5.40
2018,09,19,06,12,5.40
2018,09,19,06,13,5.40
2018,09,19,06,14,5.40
2018,09,19,06,15,5.40
2018,09,19,06,16,5.40
2018,09,19,06,17,5.40
2018,09,19,06,18,5.40
2018,09,19,06,19,5.40
2018,09,19,06,20,5.40
2018,09,19,06,21,5.40
2018,09,19,06,22,5.40
2018,09,19,06,23,5.40
2018,09,19,06,24,5.40
2018,09,19,06,25,5.40
2018,09,19,06,26,5.30
2018,09,19,06,27,5.30
2018,09,19,06,28,5.30
2018,09,19,06,29,5.30
2018,09,19,06,30,5.30
2018,09,19,06,31,5.30
2018,09,19,06,32,5.30
2018,09,19,06,33,5.30
2018,09,19,06,34,5.30
2018,09,19,06,35,5.30
2018,09,19,06,36,5.30
2018,09,19,06,37,5.30
2018,09,19,06,38,5.20
2018,09,19,06,39,5.20
2018,09,19,06,40,5.20
2018,09,19,06,41,5.30
2018,09,19,06,42,5.30
2018,09,19,06,43,5.30
2018,09,19,06,44,5.30
2018,09,19,06,45,5.30
2018,09,19,06,46,5.30
2018,09,19,06,47,5.30
2018,09,19,06,48,5.30
2018,09,19,06,49,5.30
2018,09,19,06,50,5.30
2018,09,19,06,51,5.30
2018,09,19,06,52,5.30
2018,09,19,06,53,5.30
2018,09,19,06,54,5.30
2018,09,19,06,55,5.30
2018,09,19,06,56,5.30
2018,09,19,06,57,5.30
2018,09,19,06,58,5.30
2018,09,19,06,59,5.30
2018,09,19,07,00,5.30
2018,09,19,07,01,5.30
2018,09,19,07,02,5.30
2018,09,19,07,03,5.20
2018,09,19,07,04,5.30
2018,09,19,07,05,5.30
2018,09,19,07,06,5.30
2018,09,19,07,07,5.30
2018,09,19,07,08,5.30
2018,09,19,07,09,5.30
2018,09,19,07,10,5.30
2018,09,19,07,11,5.30
2018,09,19,07,12,5.30
2018,09,19,07,13,5.30
2018,09,19,07,14,5.30
2018,09,19,07,15,5.30
2018,09,19,07,16,5.20
2018,09,19,07,17,5.20
2018,09,19,07,18,5.20
2018,09,19,07,19,5.20
2018,09,19,07,20,5.20
2018,09,19,07,21,5.20
2018,09,19,07,22,5.20
2018,09,19,07,23,5.20
2018,09,19,07,24,5.20
2018,09,19,07,25,5.20
2018,09,19,07,26,5.20
2018,09,19,07,27,5.20
2018,09,19,07,28,5.20
2018,09,19,07,29,5.20
2018,09,19,07,30,5.20
2018,09,19,07,31,5.20
2018,09,19,07,32,5.20
2018,09,19,07,33,5.20
2018,09,19,07,34,5.20
2018,09,19,07,35,5.20
2018,09,19,07,36,5.20
2018,09,19,07,37,5.20
2018,09,19,07,38,5.20
2018,09,19,07,39,5.20
2018,09,19,07,40,5.20
2018,09,19,07,41,5.20
2018,09,19,07,42,5.20
2018,09,19,07,43,5.20
2018,09,19,07,44,5.20
2018,09,19,07,45,5.20
2018,09,19,07,46,5.20
2018,09,19,07,47,5.20
2018,09,19,07,48,5.20
2018,09,19,07,49,5.20
2018,09,19,07,50,5.20
2018,09,19,07,51,5.20
2018,09,19,07,52,5.20
2018,09,19,07,53,5.20
2018,09,19,07,54,5.20
2018,09,19,07,55,5.20
2018,09,19,07,56,5.20
2018,09,19,07,57,5.20
2018,09,19,07,58,5.20
2018,09,19,07,59,5.20
2018,09,19,08,00,5.30
2018,09,19,08,01,5.30
2018,09,19,08,02,5.30
2018,09,19,08,03,5.30
2018,09,19,08,04,5.30
2018,09,19,08,05,5.30
2018,09,19,08,06,5.30
2018,09,19,08,07,5.40
2018,09,19,08,08,5.40
2018,09,19,08,09,5.50
2018,09,19,08,10,5.50
2018,09,19,08,11,5.60
2018,09,19,08,12,5.60
2018,09,19,08,13,5.60
2018,09,19,08,14,5.60
2018,09,19,08,15,5.60
2018,09,19,08,16,5.70
2018,09,19,08,17,5.70
2018,09,19,08,18,5.70
2018,09,19,08,19,5.70
2018,09,19,08,20,5.80
2018,09,19,08,21,5.80
2018,09,19,08,22,5.90
2018,09,19,08,23,6.00
2018,09,19,08,24,6.10
2018,09,19,08,25,6.20
2018,09,19,08,26,6.30
2018,09,19,08,27,6.30
2018,09,19,08,28,6.50
2018,09,19,08,29,6.60
2018,09,19,08,30,6.60
2018,09,19,08,31,6.70
2018,09,19,08,32,6.80
2018,09,19,08,33,6.90
2018,09,19,08,34,7.00
2018,09,19,08,35,7.10
2018,09,19,08,36,7.20
2018,09,19,08,37,7.30
2018,09,19,08,38,7.40
2018,09,19,08,39,7.50
2018,09,19,08,40,7.50
2018,09,19,08,41,7.60
2018,09,19,08,42,7.70
2018,09,19,08,43,7.80
2018,09,19,08,44,7.80
2018,09,19,08,45,7.90
2018,09,19,08,46,7.90
2018,09,19,08,47,7.90
2018,09,19,08,48,8.00
2018,09,19,08,49,8.10
2018,09,19,08,50,8.10
2018,09,19,08,51,8.20
2018,09,19,08,52,8.20
2018,09,19,08,53,8.30
2018,09,19,08,54,8.30
2018,09,19,08,55,8.40
2018,09,19,08,56,8.50
2018,09,19,08,57,8.60
2018,09,19,08,58,8.70
2018,09,19,08,59,8.80
2018,09,19,09,00,8.90
2018,09,19,09,01,9.00
2018,09,19,09,02,9.10
2018,09,19,09,03,9.20
2018,09,19,09,04,9.30
2018,09,19,09,05,9.40
2018,09,19,09,06,9.50
2018,09,19,09,07,9.60
2018,09,19,09,08,9.70
2018,09,19,09,09,9.80
2018,09,19,09,10,9.90
2018,09,19,09,11,10.00
2018,09,19,09,12,10.00
2018,09,19,09,13,10.10
2018,09,19,09,14,10.20
2018,09,19,09,15,10.20
2018,09,19,09,16,10.30
2018,09,19,09,17,10.40
2018,09,19,09,18,10.40
2018,09,19,09,19,10.50
2018,09,19,09,20,10.60
2018,09,19,09,21,10.70
2018,09,19,09,22,10.80
2018,09,19,09,23,10.90
2018,09,19,09,24,11.00
2018,09,19,09,25,11.10
2018,09,19,09,26,11.20
2018,09,19,09,27,11.30
2018,09,19,09,28,11.40
2018,09,19,09,29,11.40
2018,09,19,09,30,11.50
2018,09,19,09,31,11.60
2018,09,19,09,32,11.70
2018,09,19,09,33,11.70
2018,09,19,09,34,11.80
2018,09,19,09,35,11.80
2018,09,19,09,36,11.90
2018,09,19,09,37,12.00
2018,09,19,09,38,12.10
2018,09,19,09,39,12.10
2018,09,19,09,40,12.20
2018,09,19,09,41,12.30
2018,09,19,09,42,12.30
2018,09,19,09,43,12.40
2018,09,19,09,44,12.40
2018,09,19,09,45,12.50
2018,09,19,09,46,12.50
2018,09,19,09,47,12.60
2018,09,19,09,48,12.60
2018,09,19,09,49,12.60
2018,09,19,09,50,12.70
2018,09,19,09,51,12.70
2018,09,19,09,52,12.80
2018,09,19,09,53,12.90
2018,09,19,09,54,12.90
2018,09,19,09,55,13.00
2018,09,19,09,56,13.00
2018,09,19,09,57,13.10
2018,09,19,09,58,13.20
2018,09,19,09,59,13.20
2018,09,19,10,00,13.30
2018,09,19,10,01,13.30
2018,09,19,10,02,13.30
2018,09,19,10,03,13.30
2018,09,19,10,04,13.40
2018,09,19,10,05,13.50
2018,09,19,10,06,13.60
2018,09,19,10,07,13.70
2018,09,19,10,08,13.80
2018,09,19,10,09,13.90
2018,09,19,10,10,14.00
2018,09,19,10,11,14.10
2018,09,19,10,12,14.10
2018,09,19,10,13,14.10
2018,09,19,10,14,14.10
2018,09,19,10,15,14.10
2018,09,19,10,16,14.10
2018,09,19,10,17,14.10
2018,09,19,10,18,14.20
2018,09,19,10,19,14.30
2018,09,19,10,20,14.30
2018,09,19,10,21,14.40
2018,09,19,10,22,14.40
2018,09,19,10,23,14.50
2018,09,19,10,24,14.60
2018,09,19,10,25,14.70
2018,09,19,10,26,14.70
2018,09,19,10,27,14.80
2018,09,19,10,28,14.90
2018,09,19,10,29,15.00
2018,09,19,10,30,15.10
2018,09,19,10,31,15.20
2018,09,19,10,32,15.20
2018,09,19,10,33,15.30
2018,09,19,10,34,15.30
2018,09,19,10,35,15.20
2018,09,19,10,36,15.20
2018,09,19,10,37,15.20
2018,09,19,10,38,15.30
2018,09,19,10,39,15.30
2018,09,19,10,40,15.30
2018,09,19,10,41,15.40
2018,09,19,10,42,15.40
2018,09,19,10,43,15.50
2018,09,19,10,44,15.50
2018,09,19,10,45,15.60
2018,09,19,10,46,15.60
2018,09,19,10,47,15.60
2018,09,19,10,48,15.60
2018,09,19,10,49,15.50
2018,09,19,10,50,15.50
2018,09,19,10,51,15.40
2018,09,19,10,52,15.40
2018,09,19,10,53,15.40
2018,09,19,10,54,15.40
2018,09,19,10,55,15.50
2018,09,19,10,56,15.50
2018,09,19,10,57,15.50
2018,09,19,10,58,15.60
2018,09,19,10,59,15.60
2018,09,19,11,00,15.60
2018,09,19,11,01,15.60
2018,09,19,11,02,15.60
2018,09,19,11,03,15.70
2018,09,19,11,04,15.80
2018,09,19,11,05,15.80
2018,09,19,11,06,15.90
2018,09,19,11,07,15.90
2018,09,19,11,08,15.90
2018,09,19,11,09,15.90
2018,09,19,11,10,15.90
2018,09,19,11,11,16.00
2018,09,19,11,12,16.00
2018,09,19,11,13,16.00
2018,09,19,11,14,16.00
2018,09,19,11,15,16.10
2018,09,19,11,16,16.10
2018,09,19,11,17,16.10
2018,09,19,11,18,16.10
2018,09,19,11,19,16.10
2018,09,19,11,20,16.10
2018,09,19,11,21,16.20
2018,09,19,11,22,16.20
2018,09,19,11,23,16.30
2018,09,19,11,24,16.30
2018,09,19,11,25,16.40
2018,09,19,11,26,16.40
2018,09,19,11,27,16.40
2018,09,19,11,28,16.30
2018,09,19,11,29,16.30
2018,09,19,11,30,16.30
2018,09,19,11,31,16.20
2018,09,19,11,32,16.20
2018,09,19,11,33,16.20
2018,09,19,11,34,16.20
2018,09,19,11,35,16.20
2018,09,19,11,36,16.30
2018,09,19,11,37,16.30
2018,09,19,11,38,16.30
2018,09,19,11,39,16.40
2018,09,19,11,40,16.40
2018,09,19,11,41,16.40
2018,09,19,11,42,16.40
2018,09,19,11,43,16.40
2018,09,19,11,44,16.40
2018,09,19,11,45,16.30
2018,09,19,11,46,16.20
2018,09,19,11,47,16.20
2018,09,19,11,48,16.20
2018,09,19,11,49,16.20
2018,09,19,11,50,16.30
2018,09,19,11,51,16.30
2018,09,19,11,52,16.30
2018,09,19,11,53,16.30
2018,09,19,11,54,16.40
2018,09,19,11,55,16.50
2018,09,19,11,56,16.50
2018,09,19,11,57,16.60
2018,09,19,11,58,16.70
2018,09,19,11,59,16.80
2018,09,19,12,00,16.80
2018,09,19,12,01,16.90
2018,09,19,12,02,16.90
2018,09,19,12,03,16.80
2018,09,19,12,04,16.80
2018,09,19,12,05,16.80
2018,09,19,12,06,16.80
2018,09,19,12,07,16.70
2018,09,19,12,08,16.70
2018,09,19,12,09,16.70
2018,09,19,12,10,16.70
2018,09,19,12,11,16.80
2018,09,19,12,12,16.80
2018,09,19,12,13,16.80
2018,09,19,12,14,16.90
2018,09,19,12,15,16.90
2018,09,19,12,16,16.90
2018,09,19,12,17,16.90
2018,09,19,12,18,16.90
2018,09,19,12,19,16.90
2018,09,19,12,20,16.90
2018,09,19,12,21,17.00
2018,09,19,12,22,17.00
2018,09,19,12,23,17.00
2018,09,19,12,24,17.00
2018,09,19,12,25,17.00
2018,09,19,12,26,17.10
2018,09,19,12,27,17.10
2018,09,19,12,28,17.10
2018,09,19,12,29,17.10
2018,09,19,12,30,17.10
2018,09,19,12,31,17.10
2018,09,19,12,32,17.20
2018,09,19,12,33,17.20
2018,09,19,12,34,17.20
2018,09,19,12,35,17.20
2018,09,19,12,36,17.10
2018,09,19,12,37,17.10
2018,09,19,12,38,17.20
2018,09,19,12,39,17.20
2018,09,19,12,40,17.20
2018,09,19,12,41,17.20
2018,09,19,12,42,17.30
2018,09,19,12,43,17.20
2018,09,19,12,44,17.20
2018,09,19,12,45,17.20
2018,09,19,12,46,17.20
2018,09,19,12,47,17.20
2018,09,19,12,48,17.10
2018,09,19,12,49,17.10
2018,09,19,12,50,17.10
2018,09,19,12,51,17.10
2018,09,19,12,52,17.10
2018,09,19,12,53,17.10
2018,09,19,12,54,17.20
2018,09,19,12,55,17.20
2018,09,19,12,56,17.20
2018,09,19,12,57,17.30
2018,09,19,12,58,17.30
2018,09,19,12,59,17.30
2018,09,19,13,00,17.20
2018,09,19,13,01,17.20
2018,09,19,13,02,17.10
2018,09,19,13,03,17.10
2018,09,19,13,04,17.10
2018,09,19,13,05,17.10
2018,09,19,13,06,17.10
2018,09,19,13,07,17.20
2018,09,19,13,08,17.20
2018,09,19,13,09,17.20
2018,09,19,13,10,17.20
2018,09,19,13,11,17.20
2018,09,19,13,12,17.10
2018,09,19,13,13,17.00
2018,09,19,13,14,16.90
2018,09,19,13,15,16.90
2018,09,19,13,16,16.80
2018,09,19,13,17,16.70
2018,09,19,13,18,16.70
2018,09,19,13,19,16.60
2018,09,19,13,20,16.50
2018,09,19,13,21,16.50
2018,09,19,13,22,16.40
2018,09,19,13,23,16.40
2018,09,19,13,24,16.50
2018,09,19,13,25,16.50
2018,09,19,13,26,16.50
2018,09,19,13,27,16.60
2018,09,19,13,28,16.60
2018,09,19,13,29,16.60
2018,09,19,13,30,16.60
2018,09,19,13,31,16.60
2018,09,19,13,32,16.60
2018,09,19,13,33,16.70
2018,09,19,13,34,16.70
2018,09,19,13,35,16.80
2018,09,19,13,36,16.80
2018,09,19,13,37,16.80
2018,09,19,13,38,16.80
2018,09,19,13,39,16.80
2018,09,19,13,40,16.80
2018,09,19,13,41,16.90
2018,09,19,13,42,16.90
2018,09,19,13,43,16.90
2018,09,19,13,44,17.00
2018,09,19,13,45,17.00
2018,09,19,13,46,17.00
2018,09,19,13,47,17.00
2018,09,19,13,48,17.00
2018,09,19,13,49,17.10
2018,09,19,13,50,17.10
2018,09,19,13,51,17.20
2018,09,19,13,52,17.20
2018,09,19,13,53,17.20
2018,09,19,13,54,17.10
2018,09,19,13,55,17.10
2018,09,19,13,56,17.10
2018,09,19,13,57,17.10
2018,09,19,13,58,17.10
2018,09,19,13,59,17.10
2018,09,19,14,00,17.10
2018,09,19,14,01,17.10
2018,09,19,14,02,17.10
2018,09,19,14,03,17.10
2018,09,19,14,04,17.10
2018,09,19,14,05,17.10
2018,09,19,14,06,17.10
2018,09,19,14,07,17.00
2018,09,19,14,08,16.90
2018,09,19,14,09,16.90
2018,09,19,14,10,16.90
2018,09,19,14,11,17.00
2018,09,19,14,12,17.00
2018,09,19,14,13,17.10
2018,09,19,14,14,17.20
2018,09,19,14,15,17.20
2018,09,19,14,16,17.30
2018,09,19,14,17,17.30
2018,09,19,14,18,17.20
2018,09,19,14,19,17.20
2018,09,19,14,20,17.20
2018,09,19,14,21,17.10
2018,09,19,14,22,17.10
2018,09,19,14,23,17.10
2018,09,19,14,24,17.10
2018,09,19,14,25,17.10
2018,09,19,14,26,17.00
2018,09,19,14,27,17.00
2018,09,19,14,28,17.00
2018,09,19,14,29,17.00
2018,09,19,14,30,16.90
2018,09,19,14,31,16.90
2018,09,19,14,32,17.00
2018,09,19,14,33,17.00
2018,09,19,14,34,17.00
2018,09,19,14,35,17.00
2018,09,19,14,36,16.90
2018,09,19,14,37,16.90
2018,09,19,14,38,16.90
2018,09,19,14,39,17.00
2018,09,19,14,40,17.20
2018,09,19,14,41,17.20
2018,09,19,14,42,17.30
2018,09,19,14,43,17.40
2018,09,19,14,44,17.40
2018,09,19,14,45,17.50
2018,09,19,14,46,17.60
2018,09,19,14,47,17.70
2018,09,19,14,48,17.70
2018,09,19,14,49,17.80
2018,09,19,14,50,17.80
2018,09,19,14,51,17.80
2018,09,19,14,52,17.80
2018,09,19,14,53,17.80
2018,09,19,14,54,17.90
2018,09,19,14,55,17.90
2018,09,19,14,56,18.00
2018,09,19,14,57,18.00
2018,09,19,14,58,18.10
2018,09,19,14,59,18.20
2018,09,19,15,00,18.20
2018,09,19,15,01,18.20
2018,09,19,15,02,18.20
2018,09,19,15,03,18.20
2018,09,19,15,04,18.20
2018,09,19,15,05,18.20
2018,09,19,15,06,18.20
2018,09,19,15,07,18.20
2018,09,19,15,08,18.10
2018,09,19,15,09,18.10
2018,09,19,15,10,18.10
2018,09,19,15,11,18.10
2018,09,19,15,12,18.10
2018,09,19,15,13,18.00
2018,09,19,15,14,18.00
2018,09,19,15,15,18.00
2018,09,19,15,16,18.00
2018,09,19,15,17,18.00
2018,09,19,15,18,18.00
2018,09,19,15,19,18.00
2018,09,19,15,20,18.00
2018,09,19,15,21,18.00
2018,09,19,15,22,18.10
2018,09,19,15,23,18.10
2018,09,19,15,24,18.10
2018,09,19,15,25,18.00
2018,09,19,15,26,18.00
2018,09,19,15,27,17.90
2018,09,19,15,28,17.90
2018,09,19,15,29,17.80
2018,09,19,15,30,17.80
2018,09,19,15,31,17.70
2018,09,19,15,32,17.70
2018,09,19,15,33,17.70
2018,09,19,15,34,17.70
2018,09,19,15,35,17.60
2018,09,19,15,36,17.50
2018,09,19,15,37,17.50
2018,09,19,15,38,17.40
2018,09,19,15,39,17.40
2018,09,19,15,40,17.40
2018,09,19,15,41,17.40
2018,09,19,15,42,17.30
2018,09,19,15,43,17.30
2018,09,19,15,44,17.30
2018,09,19,15,45,17.30
2018,09,19,15,46,17.30
2018,09,19,15,47,17.30
2018,09,19,15,48,17.20
2018,09,19,15,49,17.20
2018,09,19,15,50,17.20
2018,09,19,15,51,17.20
2018,09,19,15,52,17.20
2018,09,19,15,53,17.20
2018,09,19,15,54,17.20
2018,09,19,15,55,17.20
2018,09,19,15,56,17.20
2018,09,19,15,57,17.20
2018,09,19,15,58,17.20
2018,09,19,15,59,17.20
2018,09,19,16,00,17.30
2018,09,19,16,01,17.30
2018,09,19,16,02,17.30
2018,09,19,16,03,17.30
2018,09,19,16,04,17.30
2018,09,19,16,05,17.40
2018,09,19,16,06,17.40
2018,09,19,16,07,17.40
2018,09,19,16,08,17.40
2018,09,19,16,09,17.40
2018,09,19,16,10,17.40
2018,09,19,16,11,17.40
2018,09,19,16,12,17.40
2018,09,19,16,13,17.30
2018,09,19,16,14,17.30
2018,09,19,16,15,17.30
2018,09,19,16,16,17.40
2018,09,19,16,17,17.40
2018,09,19,16,18,17.40
2018,09,19,16,19,17.40
2018,09,19,16,20,17.40
2018,09,19,16,21,17.40
2018,09,19,16,22,17.40
2018,09,19,16,23,17.40
2018,09,19,16,24,17.40
2018,09,19,16,25,17.40
2018,09,19,16,26,17.40
2018,09,19,16,27,17.40
2018,09,19,16,28,17.40
2018,09,19,16,29,17.40
2018,09,19,16,30,17.30
2018,09,19,16,31,17.30
2018,09,19,16,32,17.30
2018,09,19,16,33,17.30
2018,09,19,16,34,17.30
2018,09,19,16,35,17.30
2018,09,19,16,36,17.30
2018,09,19,16,37,17.30
2018,09,19,16,38,17.20
2018,09,19,16,39,17.20
2018,09,19,16,40,17.20
2018,09,19,16,41,17.10
2018,09,19,16,42,17.10
2018,09,19,16,43,17.10
2018,09,19,16,44,17.10
2018,09,19,16,45,17.10
2018,09,19,16,46,17.10
2018,09,19,16,47,17.10
2018,09,19,16,48,17.10
2018,09,19,16,49,17.00
2018,09,19,16,50,17.00
2018,09,19,16,51,17.00
2018,09,19,16,52,17.00
2018,09,19,16,53,17.00
2018,09,19,16,54,17.00
2018,09,19,16,55,17.00
2018,09,19,16,56,16.90
2018,09,19,16,57,16.90
2018,09,19,16,58,16.90
2018,09,19,16,59,16.90
2018,09,19,17,00,16.90
2018,09,19,17,01,16.90
2018,09,19,17,02,16.80
2018,09,19,17,03,16.80
2018,09,19,17,04,16.80
2018,09,19,17,05,16.80
2018,09,19,17,06,16.80
2018,09,19,17,07,16.80
2018,09,19,17,08,16.80
2018,09,19,17,09,16.70
2018,09,19,17,10,16.70
2018,09,19,17,11,16.70
2018,09,19,17,12,16.70
2018,09,19,17,13,16.70
2018,09,19,17,14,16.70
2018,09,19,17,15,16.70
2018,09,19,17,16,16.80
2018,09,19,17,17,16.80
2018,09,19,17,18,16.80
2018,09,19,17,19,16.80
2018,09,19,17,20,16.80
2018,09,19,17,21,16.80
2018,09,19,17,22,16.80
2018,09,19,17,23,16.80
2018,09,19,17,24,16.80
2018,09,19,17,25,16.80
2018,09,19,17,26,16.80
2018,09,19,17,27,16.80
2018,09,19,17,28,16.70
2018,09,19,17,29,16.70
2018,09,19,17,30,16.70
2018,09,19,17,31,16.70
2018,09,19,17,32,16.70
2018,09,19,17,33,16.70
2018,09,19,17,34,16.70
2018,09,19,17,35,16.70
2018,09,19,17,36,16.70
2018,09,19,17,37,16.70
2018,09,19,17,38,16.70
2018,09,19,17,39,16.70
2018,09,19,17,40,16.70
2018,09,19,17,41,16.70
2018,09,19,17,42,16.70
2018,09,19,17,43,16.70